[[{"header":{"parameterUnit":"m.s-1","parameterCategory":2,"la1":30.2991,"la2":30.254,"lo1":-89.0895,"lo2":-89.0444,"dy":0.0017,"dx":0.0017,"nx":28,"ny":28,"refTime":"2024-08-19T21:00:00:Z","depth":"0","parameterNumber":2,"parameterNumberName":"U-component_of_CURRENTS"},"data":[0,0,0,0,0,0,0,0,0,0,0,0,0,0,0,0,0,0,0,0,0,0,0,0,0,0,0,0,0,0,0,0,0,0,0,0,0,0,0,0,0,0,0,0,0,0,0,0,0,0,0,0,0,0,0,0,0,0,-0.2873,-0.2876,0,-0.3066,-0.3067,-0.3069,-0.3083,-0.3081,-0.3079,-0.3078,-0.3062,-0.3063,-0.3064,0,0,0,0,0,0,0,0,0,0,0,0,0,-0.2673,-0.2675,-0.2873,-0.2876,-0.2879,-0.3065,-0.3068,-0.307,-0.3083,-0.3081,-0.3079,-0.3077,-0.3061,-0.3063,-0.3064,0,0,0,0,0,0,0,0,0,0,0,0,0,-0.2798,-0.2676,-0.2873,-0.2911,-0.2916,-0.3065,-0.3068,-0.307,-0.3084,-0.3081,-0.3078,-0.3076,-0.3061,-0.3063,-0.3064,-0.313,0,0,-0.307,-0.3071,0,0,0,0,0,0,0,0,-0.2791,-0.2805,-0.2902,-0.2908,-0.2915,-0.3051,-0.2992,-0.3081,-0.3084,-0.3016,-0.3078,-0.3075,-0.3043,-0.3046,-0.3086,-0.3129,-0.3129,-0.307,-0.3072,-0.3072,-0.3073,0,0,0,0,0,0,0,-0.2782,-0.2798,-0.2945,-0.2906,-0.2913,-0.2972,-0.2984,-0.301,-0.3036,-0.3022,-0.3024,-0.3053,-0.3044,-0.3085,-0.3085,-0.3128,-0.307,-0.3072,-0.3073,-0.3074,-0.3174,-0.3175,0,0,0,0,0,0,-0.2761,-0.2789,-0.2939,-0.2952,-0.2849,-0.2977,-0.2991,-0.3007,-0.304,-0.3045,-0.3055,-0.3053,-0.3083,-0.3083,-0.3084,-0.3121,-0.3072,-0.3074,-0.3075,-0.3172,-0.3174,-0.3176,0,0,0,0,0,0,-0.2756,-0.2772,-0.2932,-0.2878,-0.2903,-0.2982,-0.3001,-0.3012,-0.3049,-0.3068,-0.3068,-0.3079,-0.3081,-0.3082,-0.3105,-0.312,-0.3075,-0.3077,-0.317,-0.3173,-0.3175,-0.3219,0,0,0,0,0,0,-0.2749,-0.2769,-0.2778,-0.2876,-0.2905,-0.3028,-0.3004,-0.3018,-0.3073,-0.3071,-0.3089,-0.3085,-0.3079,-0.3103,-0.3107,-0.3122,-0.3078,-0.3168,-0.3171,-0.3174,-0.3215,-0.3222,-0.3228,0,0,0,0,0,-0.2741,-0.2767,-0.2777,-0.2796,-0.2913,-0.3031,-0.3052,-0.3097,-0.3076,-0.3114,-0.311,-0.3084,-0.3123,-0.3106,-0.3111,-0.3127,-0.3167,-0.3171,-0.3174,-0.3213,-0.3221,-0.3228,0,0,0,0,0,0,-0.2693,-0.2775,-0.2787,-0.2837,-0.293,-0.3035,-0.3069,-0.3105,-0.3141,-0.3115,-0.3115,-0.3114,-0.314,-0.3135,-0.3117,-0.3165,-0.3138,-0.3142,-0.3165,-0.3173,-0.318,-0.3182,-0.308,0,0,0,0,0,-0.2687,-0.2713,-0.282,-0.2859,-0.2897,-0.2982,-0.3034,-0.3072,-0.312,-0.3134,-0.3152,-0.3153,-0.3167,-0.3167,-0.3187,-0.322,-0.3214,-0.323,-0.3237,-0.3242,-0.3249,-0.3266,-0.3274,-0.3187,-0.3187,-0.3187,0,0,-0.2681,-0.2726,-0.2745,-0.2849,-0.2907,-0.2983,-0.3004,-0.3083,-0.314,-0.3124,-0.3179,-0.3184,-0.3183,-0.3217,-0.3227,-0.3208,-0.3265,-0.3246,-0.3251,-0.3255,-0.327,-0.3278,-0.3286,-0.3189,-0.3189,-0.3188,0,0,-0.2676,-0.2718,-0.2736,-0.281,-0.2907,-0.2984,-0.3006,-0.3118,-0.3153,-0.3223,-0.3212,-0.3236,-0.3266,-0.3279,-0.3281,-0.334,-0.3304,-0.333,-0.3358,-0.3374,-0.3381,-0.3387,-0.3389,-0.3395,-0.3325,-0.3325,-0.3325,0,-0.2662,-0.2697,-0.277,-0.2811,-0.2873,-0.2978,-0.3035,-0.3111,-0.3218,-0.3257,-0.3234,-0.3304,-0.3301,-0.3343,-0.335,-0.3355,-0.3344,-0.3325,-0.3381,-0.3387,-0.3393,-0.3393,-0.3399,-0.3328,-0.3328,-0.3327,-0.3327,0,-0.268,-0.2708,-0.273,-0.281,-0.29,-0.2968,-0.309,-0.3182,-0.3233,-0.3296,-0.3362,-0.3375,-0.341,-0.3412,-0.339,-0.3431,-0.3404,-0.3392,-0.3358,-0.3404,-0.3401,-0.3407,-0.3331,-0.3331,-0.333,-0.3329,0,0,-0.2637,-0.2721,-0.2724,-0.2766,-0.29,-0.2992,-0.31,-0.3244,-0.3328,-0.3391,-0.3468,-0.3488,-0.3493,-0.3496,-0.3485,-0.349,-0.3513,-0.3445,-0.3444,-0.3439,-0.3528,-0.3354,-0.3343,-0.3496,-0.3497,-0.3498,-0.351,0,-0.2623,-0.2677,-0.274,-0.2837,-0.289,-0.3029,-0.3148,-0.3289,-0.3383,-0.3493,-0.3512,-0.3566,-0.3524,-0.3533,-0.3536,-0.3523,-0.3528,-0.351,-0.3491,-0.3491,-0.3324,-0.3344,-0.3127,-0.3105,-0.3515,-0.3515,-0.3516,0,-0.2612,-0.2657,-0.2714,-0.2869,-0.2912,-0.2997,-0.322,-0.3336,-0.3505,-0.357,-0.362,-0.3639,-0.3663,-0.3617,-0.3616,-0.3596,-0.3565,-0.3549,-0.3549,-0.3373,-0.3325,-0.3127,-0.3098,-0.3061,-0.3524,-0.3523,-0.3523,0,-0.2556,-0.2651,-0.2696,-0.274,-0.2931,-0.3006,-0.3136,-0.3337,-0.3449,-0.3594,-0.3657,-0.3704,-0.371,-0.3695,-0.3651,-0.3629,-0.3643,-0.3616,-0.3442,-0.343,-0.3236,-0.3202,-0.3159,-0.3626,-0.3626,-0.3626,-0.3626,0,-0.2526,-0.2568,-0.2666,-0.27,-0.2817,-0.2967,-0.3119,-0.3272,-0.3453,-0.3541,-0.3655,-0.3697,-0.3722,-0.373,-0.3687,-0.3566,-0.3672,-0.3444,-0.3418,-0.3242,-0.3211,-0.316,-0.3198,-0.3626,-0.3626,-0.3626,-0.3626,0,-0.2451,-0.2506,-0.2569,-0.2724,-0.2777,-0.2861,-0.3083,-0.3186,-0.3385,-0.3493,-0.3525,-0.3683,-0.3656,-0.3684,-0.3664,-0.358,-0.3428,-0.3461,-0.3241,-0.3185,-0.2907,-0.2955,-0.2891,-0.2819,-0.3236,-0.3231,-0.3228,0,-0.2413,-0.242,-0.2541,-0.2569,-0.2621,-0.2761,-0.2854,-0.3104,-0.3192,-0.3443,-0.3452,-0.3527,-0.3495,-0.3451,-0.3339,-0.3243,-0.327,-0.3006,-0.2912,-0.2852,-0.2891,-0.2934,-0.2884,-0.2691,-0.2683,-0.2677,-0.2672,0,-0.2332,-0.2355,-0.2411,-0.2449,-0.2509,-0.2606,-0.2735,-0.2804,-0.3058,-0.3141,-0.3207,-0.3215,-0.3195,-0.2986,-0.2917,-0.2842,-0.2878,-0.2864,-0.2873,-0.2505,-0.2484,-0.2413,-0.2741,-0.2615,-0.2621,-0.2625,-0.2628,-0.263,-0.2248,-0.2251,-0.2286,-0.232,-0.2376,-0.2389,-0.2402,-0.2514,-0.2594,-0.2656,-0.2799,-0.2742,-0.2687,-0.2513,-0.2467,-0.2288,-0.2429,-0.2177,-0.2259,-0.2324,-0.2185,-0.2366,-0.2158,-0.2161,-0.2164,-0.2166,-0.2168,0,-0.212,-0.2129,-0.2151,-0.2169,-0.2137,-0.222,-0.2275,-0.2237,-0.2188,-0.2257,-0.2233,-0.2149,-0.1963,-0.199,-0.1832,-0.1729,-0.1734,-0.172,-0.1763,-0.1754,-0.1947,-0.1848,-0.1475,-0.1475,-0.1475,-0.1476,-0.1476,-0.1476,-0.2052,-0.2013,-0.2019,-0.1907,-0.1905,-0.1798,-0.1766,-0.1707,-0.172,-0.1617,-0.1602,-0.1661,-0.1715,-0.1727,-0.1571,-0.1487,-0.1517,-0.1419,-0.1558,-0.1719,-0.177,-0.1819,-0.1732,-0.1342,-0.1342,-0.1242,-0.1242,-0.1241]},{"header":{"parameterUnit":"m.s-1","parameterCategory":2,"la1":30.2991,"la2":30.254,"lo1":-89.0895,"lo2":-89.0444,"dy":0.0017,"dx":0.0017,"nx":28,"ny":28,"refTime":"2024-08-19T21:00:00:Z","depth":"0","parameterNumber":3,"parameterNumberName":"V-component_of_CURRENTS"},"data":[0,0,0,0,0,0,0,0,0,0,0,0,0,0,0,0,0,0,0,0,0,0,0,0,0,0,0,0,0,0,0,0,0,0,0,0,0,0,0,0,0,0,0,0,0,0,0,0,0,0,0,0,0,0,0,0,0,0,-0.0294,-0.0294,0,-0.0231,-0.023,-0.0229,-0.0182,-0.0182,-0.0182,-0.0182,-0.0013,-0.0009,-0.0004,0,0,0,0,0,0,0,0,0,0,0,0,0,-0.0308,-0.0308,-0.0294,-0.0294,-0.0293,-0.0231,-0.023,-0.0229,-0.0183,-0.0182,-0.0182,-0.0182,-0.0014,-0.0009,-0.0004,0,0,0,0,0,0,0,0,0,0,0,0,0,-0.0277,-0.0308,-0.0294,-0.0264,-0.0261,-0.0231,-0.023,-0.0228,-0.0183,-0.0182,-0.0182,-0.0182,-0.0016,-0.001,-0.0003,0.0031,0,0,0.0016,0.0019,0,0,0,0,0,0,0,0,-0.0279,-0.0276,-0.0269,-0.0266,-0.0263,-0.0216,-0.0173,-0.0137,-0.0183,-0.021,-0.0182,-0.0182,-0.0073,-0.0062,-0.0049,0.0039,0.0046,0.0017,0.0021,0.0024,0.0026,0,0,0,0,0,0,0,-0.0281,-0.0278,-0.0267,-0.0269,-0.0265,-0.0231,-0.0226,-0.0166,-0.014,-0.0208,-0.0205,-0.0201,-0.007,-0.0055,-0.0044,0.0049,0.0017,0.0023,0.0027,0.0029,0.0174,0.0173,0,0,0,0,0,0,-0.0297,-0.0281,-0.0269,-0.0265,-0.0273,-0.0231,-0.0226,-0.023,-0.0143,-0.0131,-0.0202,-0.0199,-0.0066,-0.0052,-0.0038,-0.001,0.0024,0.003,0.0034,0.0174,0.0173,0.0173,0,0,0,0,0,0,-0.0298,-0.0297,-0.0271,-0.0273,-0.0267,-0.0232,-0.0236,-0.0229,-0.0219,-0.014,-0.0125,-0.02,-0.0066,-0.0047,0.0004,-0.0002,0.0033,0.0039,0.0174,0.0174,0.0173,0.0058,0,0,0,0,0,0,-0.0299,-0.0298,-0.0302,-0.0274,-0.0268,-0.0266,-0.0236,-0.0228,-0.0218,-0.0215,-0.0134,-0.0118,-0.0064,-0.0007,0.001,0.0007,0.0044,0.0174,0.0174,0.0173,0.0062,0.0054,0.0047,0,0,0,0,0,-0.03,-0.0321,-0.0303,-0.0302,-0.0277,-0.0267,-0.0261,-0.0232,-0.0219,-0.0221,-0.0168,-0.0121,0.0005,-0.0002,0.0018,0.0017,0.0174,0.0174,0.0173,0.0065,0.0055,0.0047,0,0,0,0,0,0,-0.0336,-0.0317,-0.0298,-0.0313,-0.0293,-0.026,-0.0262,-0.0241,-0.0202,-0.0199,-0.0122,-0.0102,-0.0059,-0.0003,-0.0013,0.006,0.0098,0.0102,0.0009,0.0001,-0.0006,-0.0024,0.0049,0,0,0,0,0,-0.0344,-0.0351,-0.0324,-0.0336,-0.0329,-0.0294,-0.0286,-0.027,-0.0235,-0.0219,-0.0161,-0.0097,-0.0043,-0.001,0.0048,0.0088,0.0125,0.0102,0.0094,0.0088,0.0087,0.0121,0.0116,0.0173,0.0173,0.0173,0,0,-0.0362,-0.0353,-0.0356,-0.0343,-0.0324,-0.0328,-0.0289,-0.0289,-0.0288,-0.0203,-0.0179,-0.012,-0.0038,0.0001,0.0026,0.0046,0.009,0.0088,0.0081,0.0085,0.012,0.0114,0.0109,0.0173,0.0173,0.0173,0,0,-0.0408,-0.0392,-0.0412,-0.0398,-0.038,-0.0362,-0.0367,-0.0336,-0.0316,-0.0286,-0.0227,-0.0178,-0.009,-0.0041,-0.0003,-0.0012,0.0048,0.0012,-0.0037,-0.0005,-0.001,-0.0014,0.0013,0.0012,0.001,0.0009,0.0009,0,-0.0428,-0.0447,-0.0416,-0.0428,-0.0427,-0.0384,-0.0406,-0.038,-0.0335,-0.0321,-0.0292,-0.0181,-0.0111,-0.0068,-0.0068,-0.003,-0.0003,-0.0016,-0.0018,-0.0021,-0.0023,0.0006,0.0007,0.0004,0.0005,0.0005,0.0006,0,-0.0481,-0.0493,-0.0506,-0.0505,-0.0501,-0.0514,-0.048,-0.047,-0.0439,-0.0404,-0.0356,-0.0267,-0.0203,-0.017,-0.0116,-0.0093,-0.0069,-0.0038,-0.0005,-0.0036,-0.0003,-0.0,-0.0004,-0.0002,-0.0,0.0001,0,0,-0.0538,-0.0543,-0.0547,-0.0566,-0.0544,-0.0559,-0.0554,-0.0542,-0.0549,-0.0481,-0.0476,-0.0372,-0.0323,-0.0275,-0.0204,-0.0163,-0.0152,-0.011,-0.0106,-0.0101,-0.009,0.0009,0.0022,-0.0128,-0.0128,-0.0128,-0.0067,0,-0.0588,-0.0638,-0.0621,-0.0672,-0.0697,-0.066,-0.0671,-0.0651,-0.0606,-0.0586,-0.0491,-0.045,-0.0363,-0.0338,-0.0285,-0.0188,-0.0147,-0.0172,-0.0044,-0.004,0.0037,0.0028,0.0069,0.0135,-0.0064,-0.0064,-0.0063,0,-0.0643,-0.0672,-0.0727,-0.0771,-0.0781,-0.08,-0.0815,-0.0815,-0.0761,-0.0725,-0.0658,-0.058,-0.0503,-0.0427,-0.0288,-0.0311,-0.0207,-0.0127,-0.0123,0.0015,0.0065,0.014,0.0148,0.0306,-0.0058,-0.0058,-0.0059,0,-0.0709,-0.0752,-0.0805,-0.0812,-0.0845,-0.0868,-0.0885,-0.0856,-0.0868,-0.0805,-0.0802,-0.0692,-0.0647,-0.0512,-0.0318,-0.0316,-0.0159,-0.0141,0.0045,0.0052,0.014,0.0155,0.0305,-0.0041,-0.0041,-0.0041,-0.0042,0,-0.0771,-0.0817,-0.0841,-0.0873,-0.0957,-0.0944,-0.1011,-0.0999,-0.0983,-0.0998,-0.088,-0.0851,-0.0665,-0.0538,-0.0365,-0.0141,-0.0195,0.0041,0.0079,0.0102,0.0113,0.0299,0.035,-0.0039,-0.004,-0.004,-0.0041,0,-0.0833,-0.0841,-0.0917,-0.0967,-0.0989,-0.1048,-0.111,-0.1148,-0.1118,-0.1129,-0.1118,-0.0989,-0.0808,-0.0596,-0.0368,-0.0203,0.0111,0.0101,0.0121,0.0163,0.0478,0.052,0.0705,0.0803,0.0286,0.0289,0.0291,0,-0.087,-0.0906,-0.0993,-0.1048,-0.1072,-0.115,-0.1207,-0.1213,-0.1235,-0.1195,-0.12,-0.1043,-0.0876,-0.0504,-0.0194,0.012,0.0239,0.033,0.0357,0.0514,0.0588,0.0608,0.0677,0.0412,0.0415,0.0418,0.042,0,-0.0941,-0.0964,-0.1032,-0.114,-0.1211,-0.1299,-0.1359,-0.1395,-0.1385,-0.1357,-0.1249,-0.1107,-0.0737,-0.0339,0.006,0.0243,0.0447,0.0396,0.0547,0.0701,0.0741,0.0848,0.0346,0.0444,0.0441,0.044,0.0438,0.0437,-0.099,-0.106,-0.114,-0.1242,-0.1325,-0.1403,-0.1452,-0.146,-0.1463,-0.1357,-0.1245,-0.0969,-0.0461,0.013,0.0339,0.0748,0.0684,0.0863,0.0897,0.0901,0.102,0.0582,0.0739,0.0738,0.0738,0.0737,0.0737,0,-0.1048,-0.1125,-0.1234,-0.1351,-0.1438,-0.1458,-0.1525,-0.1512,-0.1453,-0.1282,-0.1097,-0.0527,-0.0009,0.0439,0.1014,0.1237,0.126,0.1316,0.1337,0.1383,0.0992,0.1025,0.1264,0.1264,0.1264,0.1264,0.1264,0.1263,-0.1084,-0.1197,-0.1257,-0.1408,-0.1478,-0.1542,-0.1556,-0.1481,-0.1347,-0.0987,-0.0645,-0.0379,0.0228,0.11,0.1603,0.1636,0.1796,0.1772,0.1866,0.158,0.1539,0.15,0.1546,0.1891,0.1891,0.2245,0.2249,0.2251]}],[{"header":{"parameterUnit":"m.s-1","parameterCategory":2,"la1":30.2991,"la2":30.254,"lo1":-89.0895,"lo2":-89.0444,"dy":0.0017,"dx":0.0017,"nx":28,"ny":28,"refTime":"2024-08-19T21:00:00:Z","depth":"2","parameterNumber":2,"parameterNumberName":"U-component_of_CURRENTS"},"data":[0,0,0,0,0,0,0,0,0,0,0,0,0,0,0,0,0,0,0,0,0,0,0,0,0,0,0,0,0,0,0,0,0,0,0,0,0,0,0,0,0,0,0,0,0,0,0,0,0,0,0,0,0,0,0,0,0,0,-0.2509,-0.251,0,-0.2598,-0.2599,-0.26,-0.2598,-0.2596,-0.2595,-0.2594,-0.2638,-0.264,-0.2642,0,0,0,0,0,0,0,0,0,0,0,0,0,-0.2384,-0.2386,-0.2509,-0.251,-0.2511,-0.2598,-0.2599,-0.2601,-0.2598,-0.2596,-0.2595,-0.2593,-0.2637,-0.264,-0.2642,0,0,0,0,0,0,0,0,0,0,0,0,0,-0.2452,-0.2387,-0.2509,-0.252,-0.2522,-0.2598,-0.2599,-0.2601,-0.2598,-0.2596,-0.2594,-0.2593,-0.2636,-0.2639,-0.2643,-0.27,0,0,-0.2653,-0.2655,0,0,0,0,0,0,0,0,-0.2448,-0.2456,-0.2517,-0.252,-0.2522,-0.2585,-0.2571,-0.2632,-0.2599,-0.2569,-0.2594,-0.2592,-0.2617,-0.2622,-0.2643,-0.2703,-0.2704,-0.2653,-0.2656,-0.2657,-0.2658,0,0,0,0,0,0,0,-0.2443,-0.2453,-0.2544,-0.2519,-0.2522,-0.2538,-0.2545,-0.2583,-0.2601,-0.2572,-0.2572,-0.2582,-0.2618,-0.264,-0.2644,-0.2705,-0.2653,-0.2656,-0.2659,-0.266,-0.2794,-0.2796,0,0,0,0,0,0,-0.2433,-0.2449,-0.2541,-0.2547,-0.248,-0.2541,-0.2549,-0.2567,-0.2602,-0.2606,-0.2584,-0.2582,-0.2635,-0.264,-0.2646,-0.2693,-0.2657,-0.266,-0.2662,-0.2793,-0.2795,-0.2796,0,0,0,0,0,0,-0.243,-0.244,-0.2538,-0.2499,-0.2512,-0.2545,-0.2565,-0.2569,-0.2589,-0.2612,-0.2614,-0.2598,-0.2634,-0.2641,-0.2685,-0.2695,-0.2662,-0.2665,-0.2791,-0.2793,-0.2795,-0.2802,0,0,0,0,0,0,-0.2426,-0.2439,-0.2452,-0.2499,-0.2514,-0.2577,-0.2567,-0.2572,-0.2599,-0.2597,-0.2625,-0.2628,-0.2633,-0.268,-0.2688,-0.2699,-0.2668,-0.2789,-0.2792,-0.2795,-0.28,-0.2804,-0.2808,0,0,0,0,0,-0.2421,-0.2447,-0.2453,-0.2464,-0.253,-0.2577,-0.2587,-0.2603,-0.2601,-0.2614,-0.2638,-0.2626,-0.2703,-0.2685,-0.2694,-0.2706,-0.2788,-0.2791,-0.2795,-0.2798,-0.2804,-0.2808,0,0,0,0,0,0,-0.2399,-0.2451,-0.2457,-0.2497,-0.253,-0.2576,-0.2596,-0.261,-0.2644,-0.2641,-0.2656,-0.2662,-0.2707,-0.2713,-0.2692,-0.2755,-0.274,-0.2746,-0.274,-0.2745,-0.2749,-0.271,-0.267,0,0,0,0,0,-0.2401,-0.2429,-0.2478,-0.2504,-0.2525,-0.2563,-0.2586,-0.2598,-0.2633,-0.2645,-0.2675,-0.2702,-0.2733,-0.2742,-0.2779,-0.2815,-0.2819,-0.2828,-0.2832,-0.2835,-0.2812,-0.2855,-0.286,-0.2807,-0.2807,-0.2807,0,0,-0.2398,-0.243,-0.2444,-0.2501,-0.2529,-0.2559,-0.2572,-0.2608,-0.2617,-0.2647,-0.2683,-0.2729,-0.2752,-0.2793,-0.2812,-0.2793,-0.2854,-0.2839,-0.2842,-0.2816,-0.2859,-0.2864,-0.2868,-0.281,-0.2809,-0.2809,0,0,-0.2398,-0.2435,-0.2455,-0.2489,-0.2534,-0.2561,-0.2571,-0.2629,-0.2637,-0.2694,-0.271,-0.275,-0.282,-0.282,-0.283,-0.2878,-0.2887,-0.2907,-0.288,-0.2923,-0.2927,-0.2931,-0.2943,-0.2947,-0.2893,-0.2893,-0.2893,0,-0.2388,-0.2422,-0.2467,-0.2495,-0.2521,-0.2559,-0.2584,-0.2603,-0.2665,-0.269,-0.2703,-0.2819,-0.282,-0.2854,-0.2852,-0.2881,-0.2911,-0.2856,-0.2926,-0.2929,-0.2933,-0.2945,-0.2949,-0.2894,-0.2894,-0.2894,-0.2894,0,-0.2403,-0.2431,-0.2448,-0.2491,-0.2528,-0.2557,-0.2594,-0.2628,-0.2664,-0.2701,-0.2774,-0.2809,-0.2872,-0.288,-0.2869,-0.29,-0.2916,-0.2938,-0.2906,-0.2938,-0.2949,-0.2954,-0.2895,-0.2895,-0.2894,-0.2894,0,0,-0.237,-0.2443,-0.2444,-0.2473,-0.253,-0.2568,-0.2586,-0.2635,-0.2674,-0.2734,-0.2801,-0.2822,-0.2871,-0.2882,-0.2898,-0.2901,-0.2927,-0.2918,-0.292,-0.2914,-0.3021,-0.2831,-0.2817,-0.2984,-0.2985,-0.2985,-0.3019,0,-0.236,-0.2407,-0.2446,-0.2491,-0.2524,-0.2573,-0.2602,-0.2651,-0.2707,-0.2788,-0.2816,-0.2901,-0.2862,-0.2921,-0.2912,-0.2943,-0.2942,-0.2915,-0.3002,-0.3003,-0.2818,-0.2816,-0.2602,-0.2596,-0.3023,-0.3024,-0.3025,0,-0.2346,-0.2389,-0.2427,-0.2512,-0.2534,-0.2565,-0.2648,-0.2682,-0.2771,-0.2832,-0.2905,-0.2969,-0.2982,-0.2972,-0.2987,-0.2987,-0.2987,-0.2993,-0.2996,-0.2809,-0.282,-0.2635,-0.2589,-0.3032,-0.3032,-0.3031,-0.3031,0,-0.23,-0.2372,-0.2404,-0.2431,-0.253,-0.2559,-0.2611,-0.2697,-0.2746,-0.2872,-0.2954,-0.3012,-0.3059,-0.3073,-0.3047,-0.3049,-0.3074,-0.3091,-0.2917,-0.2905,-0.2724,-0.2692,-0.3103,-0.3103,-0.3103,-0.3103,-0.3103,0,-0.2272,-0.23,-0.2388,-0.2414,-0.2474,-0.255,-0.2622,-0.2691,-0.2803,-0.2862,-0.2973,-0.3022,-0.3091,-0.3115,-0.3089,-0.2986,-0.3109,-0.2885,-0.2891,-0.2719,-0.2687,-0.3069,-0.3064,-0.3104,-0.3104,-0.3104,-0.3104,0,-0.2205,-0.2261,-0.231,-0.2414,-0.2449,-0.2492,-0.2616,-0.2665,-0.2789,-0.2873,-0.2924,-0.3044,-0.3033,-0.3069,-0.3089,-0.3009,-0.2966,-0.2911,-0.2675,-0.2647,-0.2762,-0.2758,-0.2712,-0.2705,-0.27,-0.2695,-0.2691,0,-0.2172,-0.2184,-0.2289,-0.2317,-0.2359,-0.244,-0.2485,-0.2632,-0.2682,-0.2842,-0.2864,-0.2932,-0.2887,-0.2844,-0.2758,-0.2681,-0.281,-0.2448,-0.2365,-0.2706,-0.2719,-0.2724,-0.2727,-0.2157,-0.2149,-0.2143,-0.2137,0,-0.2101,-0.213,-0.2177,-0.2225,-0.2275,-0.2336,-0.2413,-0.2458,-0.2602,-0.2662,-0.269,-0.2678,-0.2626,-0.2417,-0.2336,-0.2271,-0.2433,-0.2301,-0.2764,-0.2256,-0.2176,-0.219,-0.2214,-0.2079,-0.2085,-0.2089,-0.2092,-0.2095,-0.203,-0.2036,-0.2076,-0.211,-0.2164,-0.2177,-0.2165,-0.224,-0.2273,-0.2288,-0.2391,-0.2281,-0.2277,-0.1974,-0.188,-0.1827,-0.1983,-0.1913,-0.1938,-0.1969,-0.1865,-0.1775,-0.1584,-0.1587,-0.1589,-0.1592,-0.1594,0,-0.1916,-0.1926,-0.1952,-0.1975,-0.1952,-0.2028,-0.2062,-0.2005,-0.1946,-0.1973,-0.1926,-0.1712,-0.154,-0.1559,-0.136,-0.131,-0.1361,-0.1268,-0.1343,-0.1398,-0.1449,-0.1324,-0.0898,-0.0896,-0.0894,-0.0893,0,0,-0.1856,-0.1823,-0.1827,-0.1738,-0.1744,-0.165,-0.162,-0.156,-0.154,-0.1424,-0.1357,-0.1414,-0.1471,-0.1176,-0.1109,-0.0966,-0.1182,-0.0918,-0.147,-0.1612,-0.166,-0.1804,-0.167,0,0,0,0,0]},{"header":{"parameterUnit":"m.s-1","parameterCategory":2,"la1":30.2991,"la2":30.254,"lo1":-89.0895,"lo2":-89.0444,"dy":0.0017,"dx":0.0017,"nx":28,"ny":28,"refTime":"2024-08-19T21:00:00:Z","depth":"2","parameterNumber":3,"parameterNumberName":"V-component_of_CURRENTS"},"data":[0,0,0,0,0,0,0,0,0,0,0,0,0,0,0,0,0,0,0,0,0,0,0,0,0,0,0,0,0,0,0,0,0,0,0,0,0,0,0,0,0,0,0,0,0,0,0,0,0,0,0,0,0,0,0,0,0,0,-0.0203,-0.0202,0,-0.0145,-0.0144,-0.0144,-0.0105,-0.0105,-0.0104,-0.0104,0.0042,0.0046,0.005,0,0,0,0,0,0,0,0,0,0,0,0,0,-0.0213,-0.0213,-0.0203,-0.0202,-0.0201,-0.0145,-0.0144,-0.0143,-0.0105,-0.0105,-0.0104,-0.0104,0.0041,0.0046,0.005,0,0,0,0,0,0,0,0,0,0,0,0,0,-0.0186,-0.0214,-0.0203,-0.0176,-0.0174,-0.0145,-0.0144,-0.0143,-0.0105,-0.0105,-0.0104,-0.0104,0.004,0.0045,0.0051,0.0081,0,0,0.0068,0.007,0,0,0,0,0,0,0,0,-0.0188,-0.0186,-0.0181,-0.0178,-0.0175,-0.0133,-0.0094,-0.0064,-0.0105,-0.0129,-0.0104,-0.0104,-0.0009,0.0001,0.0012,0.0088,0.0094,0.0069,0.0072,0.0074,0.0076,0,0,0,0,0,0,0,-0.019,-0.0188,-0.0178,-0.018,-0.0177,-0.0145,-0.0141,-0.0088,-0.0068,-0.0127,-0.0125,-0.0121,-0.0007,0.0006,0.0016,0.0097,0.0068,0.0073,0.0077,0.0079,0.0209,0.0209,0,0,0,0,0,0,-0.0204,-0.019,-0.018,-0.0177,-0.0183,-0.0145,-0.0141,-0.0146,-0.0071,-0.006,-0.0121,-0.0119,-0.0004,0.0009,0.0021,0.0049,0.0074,0.008,0.0083,0.0209,0.0209,0.0209,0,0,0,0,0,0,-0.0204,-0.0204,-0.0183,-0.0182,-0.0178,-0.0146,-0.0151,-0.0145,-0.0137,-0.0067,-0.0055,-0.0121,-0.0003,0.0013,0.0057,0.0056,0.0082,0.0087,0.0209,0.0209,0.0209,0.0114,0,0,0,0,0,0,-0.0205,-0.0205,-0.021,-0.0184,-0.0178,-0.0177,-0.0151,-0.0144,-0.0135,-0.0133,-0.0063,-0.0049,-0.0002,0.0047,0.0062,0.0064,0.0092,0.0209,0.0209,0.0209,0.0117,0.0111,0.0105,0,0,0,0,0,-0.0206,-0.0227,-0.021,-0.0209,-0.0188,-0.0177,-0.0172,-0.0147,-0.0136,-0.0138,-0.0093,-0.0051,0.0059,0.0052,0.0069,0.0072,0.0208,0.0209,0.0209,0.0119,0.0112,0.0105,0,0,0,0,0,0,-0.0241,-0.0224,-0.0206,-0.0221,-0.0201,-0.0172,-0.0174,-0.0154,-0.0122,-0.012,-0.0052,-0.0036,0.0003,0.0052,0.0042,0.0111,0.0142,0.0146,0.0069,0.0062,0.0056,0.0045,0.0096,0,0,0,0,0,-0.0249,-0.0257,-0.023,-0.0242,-0.0236,-0.0204,-0.0196,-0.0181,-0.015,-0.0137,-0.0086,-0.003,0.0018,0.0048,0.0098,0.0136,0.0181,0.0152,0.0146,0.0141,0.0144,0.0195,0.0194,0.0209,0.0209,0.0209,0,0,-0.0265,-0.0257,-0.0261,-0.0249,-0.0232,-0.023,-0.0199,-0.0199,-0.0192,-0.0123,-0.0097,-0.0049,0.0022,0.0059,0.0082,0.01,0.0159,0.0141,0.0135,0.0142,0.0195,0.0194,0.0192,0.0209,0.0209,0.0209,0,0,-0.0309,-0.0296,-0.0315,-0.03,-0.0283,-0.0261,-0.0265,-0.0235,-0.0216,-0.0188,-0.0138,-0.0095,-0.0019,0.0029,0.0064,0.006,0.0122,0.0079,0.0046,0.0095,0.0094,0.0093,0.0138,0.0142,0.008,0.008,0.008,0,-0.0327,-0.0346,-0.0318,-0.0329,-0.0324,-0.0279,-0.0295,-0.0266,-0.0225,-0.0208,-0.0191,-0.0089,-0.0032,0.0018,0.0016,0.0047,0.0083,0.0061,0.0085,0.0086,0.0087,0.0133,0.0139,0.0075,0.0076,0.0076,0.0077,0,-0.0376,-0.0387,-0.04,-0.0393,-0.0383,-0.0392,-0.0351,-0.0332,-0.0302,-0.0269,-0.0221,-0.0149,-0.0089,-0.0063,-0.0022,0.0016,0.0041,0.0065,0.0096,0.008,0.0129,0.0137,0.0069,0.0071,0.0072,0.0073,0,0,-0.0431,-0.0435,-0.0438,-0.045,-0.042,-0.0425,-0.0403,-0.0375,-0.0365,-0.031,-0.0291,-0.0209,-0.0172,-0.0129,-0.0072,-0.0023,0.0013,0.0019,0.0024,0.005,0.0118,0.016,0.0174,0.0036,0.0038,0.0038,0.0144,0,-0.0476,-0.0519,-0.0501,-0.0534,-0.0551,-0.0501,-0.0487,-0.0452,-0.0406,-0.0371,-0.0292,-0.0255,-0.0196,-0.0178,-0.0118,-0.0019,0.0032,-0.0018,0.0142,0.0147,0.0176,0.0184,0.0156,0.0251,0.0153,0.0154,0.0155,0,-0.0525,-0.0551,-0.0595,-0.0611,-0.0614,-0.0619,-0.0593,-0.0578,-0.0503,-0.0467,-0.0406,-0.0343,-0.0262,-0.0216,-0.0056,-0.0092,0.0005,0.0083,0.009,0.0171,0.0205,0.0256,0.027,0.0169,0.0168,0.0167,0.0166,0,-0.0584,-0.0617,-0.0659,-0.0661,-0.0664,-0.0671,-0.0668,-0.0611,-0.0603,-0.0533,-0.0513,-0.0407,-0.0358,-0.0225,-0.0056,-0.006,0.0124,0.0139,0.0272,0.0276,0.0307,0.0312,0.0252,0.0252,0.0251,0.0251,0.0251,0,-0.0639,-0.0675,-0.0694,-0.072,-0.0776,-0.0745,-0.0779,-0.0746,-0.0699,-0.0692,-0.0579,-0.0534,-0.0358,-0.0228,-0.0076,0.0128,0.0112,0.0274,0.031,0.0273,0.0274,0.025,0.0248,0.0255,0.0254,0.0253,0.0253,0,-0.0695,-0.0702,-0.0764,-0.0793,-0.0808,-0.0851,-0.0875,-0.0887,-0.0824,-0.0806,-0.0792,-0.0635,-0.0455,-0.0262,-0.0037,0.0099,0.0287,0.0363,0.0307,0.0336,0.0408,0.04,0.0514,0.0516,0.0518,0.052,0.0522,0,-0.0728,-0.0761,-0.0835,-0.0885,-0.0906,-0.096,-0.0994,-0.0961,-0.096,-0.0856,-0.0845,-0.0675,-0.0519,-0.0166,0.0082,0.0352,0.0353,0.048,0.0476,0.0413,0.0437,0.0426,0.0416,0.0476,0.0477,0.0478,0.0479,0,-0.0794,-0.0816,-0.0874,-0.0978,-0.1038,-0.1104,-0.1137,-0.1151,-0.1091,-0.1024,-0.0886,-0.0751,-0.0416,-0.0107,0.0226,0.0377,0.0433,0.0507,0.0465,0.0413,0.0386,0.0407,0.0396,0.0486,0.0485,0.0485,0.0484,0.0484,-0.0842,-0.0905,-0.0979,-0.1074,-0.1147,-0.1212,-0.1247,-0.1227,-0.1191,-0.1043,-0.0917,-0.0655,-0.0386,0.0115,0.034,0.0537,0.0535,0.0596,0.059,0.0584,0.0559,0.0538,0.0661,0.0661,0.0661,0.0662,0.0662,0,-0.09,-0.0969,-0.107,-0.1177,-0.1256,-0.1273,-0.1312,-0.1287,-0.1205,-0.1019,-0.0827,-0.0496,-0.0147,0.0125,0.0454,0.0652,0.0615,0.0672,0.0593,0.0586,0.0579,0.055,0.0652,0.0653,0.0653,0.0654,0,0,-0.0936,-0.1041,-0.1095,-0.1236,-0.1303,-0.1361,-0.137,-0.1286,-0.1145,-0.0922,-0.0704,-0.0433,-0.0109,0.0126,0.0358,0.0524,0.05,0.0527,0.0516,0.0389,0.038,0.052,0.0467,0,0,0,0,0]}],[{"header":{"parameterUnit":"m.s-1","parameterCategory":2,"la1":30.2991,"la2":30.254,"lo1":-89.0895,"lo2":-89.0444,"dy":0.0017,"dx":0.0017,"nx":28,"ny":28,"refTime":"2024-08-19T21:00:00:Z","depth":"4","parameterNumber":2,"parameterNumberName":"U-component_of_CURRENTS"},"data":[0,0,0,0,0,0,0,0,0,0,0,0,0,0,0,0,0,0,0,0,0,0,0,0,0,0,0,0,0,0,0,0,0,0,0,0,0,0,0,0,0,0,0,0,0,0,0,0,0,0,0,0,0,0,0,0,0,0,-0.1754,-0.1754,0,-0.1712,-0.171,-0.1709,-0.1687,-0.1688,-0.1689,-0.169,-0.1694,-0.1694,-0.1693,0,0,0,0,0,0,0,0,0,0,0,0,0,-0.1657,-0.1659,-0.1754,-0.1754,-0.1755,-0.1712,-0.171,-0.1709,-0.1687,-0.1688,-0.1689,-0.169,-0.1695,-0.1694,-0.1693,0,0,0,0,0,0,0,0,0,0,0,0,0,-0.1656,-0.1659,-0.1754,-0.1746,-0.1746,-0.1712,-0.171,-0.1708,-0.1687,-0.1688,-0.1689,-0.1691,-0.1695,-0.1694,-0.1693,-0.1658,0,0,-0.1689,-0.1689,0,0,0,0,0,0,0,0,-0.1656,-0.1658,-0.1747,-0.1747,-0.1747,-0.1715,-0.1678,-0.1697,-0.1686,-0.1698,-0.169,-0.1691,-0.1711,-0.1709,-0.1682,-0.1658,-0.1658,-0.1689,-0.1688,-0.1688,-0.1688,0,0,0,0,0,0,0,-0.1656,-0.1659,-0.1726,-0.1748,-0.1747,-0.1692,-0.1693,-0.168,-0.169,-0.1697,-0.1698,-0.171,-0.171,-0.1683,-0.1683,-0.1658,-0.1689,-0.1688,-0.1687,-0.1687,-0.1731,-0.1733,0,0,0,0,0,0,-0.169,-0.166,-0.1728,-0.1726,-0.1715,-0.1694,-0.1695,-0.1715,-0.1689,-0.1689,-0.1709,-0.1709,-0.1685,-0.1684,-0.1683,-0.1719,-0.1688,-0.1687,-0.1686,-0.1729,-0.1731,-0.1733,0,0,0,0,0,0,-0.1688,-0.1696,-0.173,-0.1699,-0.1701,-0.1696,-0.1718,-0.1714,-0.1719,-0.1699,-0.1698,-0.1724,-0.1686,-0.1685,-0.1694,-0.1717,-0.1686,-0.1685,-0.1727,-0.173,-0.1732,-0.1742,0,0,0,0,0,0,-0.1685,-0.1696,-0.1724,-0.1702,-0.1705,-0.1727,-0.1717,-0.1713,-0.1728,-0.1728,-0.1711,-0.1711,-0.1687,-0.1695,-0.1692,-0.1715,-0.1684,-0.1725,-0.1728,-0.1732,-0.1739,-0.1745,-0.1749,0,0,0,0,0,-0.1682,-0.1713,-0.1726,-0.1735,-0.1744,-0.1729,-0.1723,-0.1715,-0.1728,-0.1725,-0.1721,-0.1713,-0.1717,-0.1695,-0.1691,-0.1714,-0.1723,-0.1727,-0.1731,-0.1737,-0.1744,-0.1749,0,0,0,0,0,0,-0.1677,-0.1714,-0.1728,-0.1768,-0.1762,-0.173,-0.1743,-0.1734,-0.1723,-0.1742,-0.1716,-0.1714,-0.1731,-0.173,-0.1707,-0.1744,-0.1727,-0.1731,-0.1733,-0.1739,-0.1744,-0.1744,-0.1684,0,0,0,0,0,-0.1696,-0.1734,-0.1742,-0.1772,-0.1785,-0.1769,-0.1769,-0.1764,-0.1754,-0.1751,-0.1739,-0.1743,-0.1737,-0.1746,-0.1737,-0.1749,-0.1746,-0.1773,-0.1778,-0.1782,-0.1784,-0.1797,-0.1802,-0.1747,-0.1747,-0.1747,0,0,-0.1702,-0.1729,-0.175,-0.1775,-0.1778,-0.1782,-0.177,-0.1785,-0.178,-0.1756,-0.1758,-0.1752,-0.1744,-0.1751,-0.1762,-0.1758,-0.1798,-0.1787,-0.179,-0.179,-0.1802,-0.1806,-0.1811,-0.175,-0.1749,-0.1749,0,0,-0.1716,-0.1764,-0.1795,-0.1804,-0.1829,-0.1812,-0.1828,-0.1818,-0.1815,-0.1813,-0.1799,-0.1804,-0.1804,-0.1787,-0.1783,-0.1817,-0.1816,-0.1843,-0.187,-0.1882,-0.1886,-0.1889,-0.1889,-0.1892,-0.1853,-0.1854,-0.1854,0,-0.1723,-0.1767,-0.1794,-0.182,-0.1835,-0.1835,-0.1849,-0.1836,-0.1822,-0.1827,-0.1831,-0.183,-0.1813,-0.1816,-0.1825,-0.1823,-0.1837,-0.1838,-0.1885,-0.1888,-0.1891,-0.1891,-0.1894,-0.1854,-0.1854,-0.1854,-0.1854,0,-0.1744,-0.1791,-0.1813,-0.185,-0.1858,-0.1876,-0.1876,-0.1879,-0.1887,-0.1875,-0.1892,-0.1866,-0.1868,-0.1872,-0.1852,-0.1878,-0.1882,-0.1878,-0.186,-0.1897,-0.1895,-0.1898,-0.1856,-0.1856,-0.1855,-0.1855,0,0,-0.1722,-0.1812,-0.1821,-0.1854,-0.1884,-0.1888,-0.1898,-0.1899,-0.1914,-0.1914,-0.1928,-0.1912,-0.1917,-0.1914,-0.19,-0.1912,-0.1927,-0.1915,-0.1916,-0.1898,-0.1962,-0.183,-0.182,-0.1943,-0.1944,-0.1945,-0.195,0,-0.1727,-0.1791,-0.1825,-0.1867,-0.1899,-0.1918,-0.192,-0.1927,-0.1931,-0.1941,-0.1942,-0.1949,-0.1929,-0.1938,-0.1945,-0.1936,-0.194,-0.1927,-0.1945,-0.1945,-0.1808,-0.182,-0.1947,-0.1952,-0.1953,-0.1953,-0.1953,0,-0.1718,-0.1772,-0.1829,-0.1896,-0.1913,-0.1932,-0.1956,-0.1959,-0.1974,-0.1984,-0.2002,-0.2,-0.2008,-0.1989,-0.1996,-0.2,-0.1981,-0.1973,-0.1973,-0.1846,-0.1818,-0.1911,-0.1959,-0.1959,-0.1958,-0.1958,-0.1957,0,-0.1671,-0.1762,-0.1813,-0.184,-0.1911,-0.1941,-0.1963,-0.1982,-0.199,-0.2018,-0.2038,-0.2049,-0.2058,-0.2057,-0.2028,-0.2027,-0.2036,-0.2025,-0.1886,-0.1877,-0.1991,-0.1987,-0.2022,-0.2022,-0.2022,-0.2022,-0.2022,0,-0.1641,-0.1687,-0.1812,-0.1843,-0.19,-0.1947,-0.1986,-0.2005,-0.2034,-0.2047,-0.2066,-0.207,-0.2082,-0.208,-0.2053,-0.1973,-0.2053,-0.1883,-0.1866,-0.1996,-0.1993,-0.1992,-0.1989,-0.2023,-0.2022,-0.2022,-0.2022,0,-0.1568,-0.1655,-0.1729,-0.1843,-0.1885,-0.1922,-0.2005,-0.2016,-0.2058,-0.2077,-0.209,-0.2103,-0.2081,-0.207,-0.2055,-0.1984,-0.1935,-0.1885,-0.2024,-0.2016,-0.1764,-0.1762,-0.1727,-0.1722,-0.1718,-0.1715,-0.1712,0,-0.1533,-0.1569,-0.1722,-0.1773,-0.1836,-0.1912,-0.1947,-0.2014,-0.2024,-0.2079,-0.2074,-0.2077,-0.2065,-0.1933,-0.194,-0.1865,-0.1834,-0.1809,-0.1775,-0.1745,-0.1733,-0.1737,-0.1739,-0.1705,-0.1704,-0.1703,-0.1702,0,-0.1462,-0.1533,-0.1597,-0.1698,-0.1775,-0.1837,-0.1903,-0.1906,-0.1965,-0.2045,-0.1988,-0.1937,-0.1898,-0.184,-0.1782,-0.1736,-0.1829,-0.1767,-0.1774,-0.1742,-0.1719,-0.1712,-0.1719,-0.1688,-0.169,-0.1692,-0.1692,0,-0.1407,-0.1432,-0.152,-0.1588,-0.1684,-0.1709,-0.1771,-0.1783,-0.1803,-0.1875,-0.1865,-0.1854,-0.1895,-0.1773,-0.1736,-0.1659,-0.162,-0.1573,-0.159,-0.1605,-0.1555,-0.1508,-0.139,0,0,0,0,0,-0.1334,-0.1339,-0.1395,-0.1459,-0.1543,-0.1584,-0.1702,-0.176,-0.1857,-0.1775,-0.1803,-0.1751,-0.1652,-0.1655,-0.1538,-0.166,-0.1624,-0.152,-0.1581,-0.1611,-0.1627,-0.1575,0,0,0,0,0,0,-0.1285,-0.1331,-0.1343,-0.132,-0.133,-0.1394,-0.1462,-0.1542,-0.1505,-0.1613,-0.1562,-0.164,-0.1561,-0.1665,-0.1491,-0.149,-0.1495,-0.153,-0.1525,-0.1602,-0.1617,-0.163,-0.1581,0,0,0,0,0]},{"header":{"parameterUnit":"m.s-1","parameterCategory":2,"la1":30.2991,"la2":30.254,"lo1":-89.0895,"lo2":-89.0444,"dy":0.0017,"dx":0.0017,"nx":28,"ny":28,"refTime":"2024-08-19T21:00:00:Z","depth":"4","parameterNumber":3,"parameterNumberName":"V-component_of_CURRENTS"},"data":[0,0,0,0,0,0,0,0,0,0,0,0,0,0,0,0,0,0,0,0,0,0,0,0,0,0,0,0,0,0,0,0,0,0,0,0,0,0,0,0,0,0,0,0,0,0,0,0,0,0,0,0,0,0,0,0,0,0,-0.0147,-0.0147,0,-0.0122,-0.0122,-0.0122,-0.01,-0.0099,-0.0099,-0.0099,-0.0036,-0.0034,-0.0033,0,0,0,0,0,0,0,0,0,0,0,0,0,-0.0146,-0.0146,-0.0147,-0.0147,-0.0146,-0.0122,-0.0122,-0.0122,-0.01,-0.0099,-0.0099,-0.0099,-0.0036,-0.0035,-0.0033,0,0,0,0,0,0,0,0,0,0,0,0,0,-0.0137,-0.0146,-0.0147,-0.0133,-0.0131,-0.0122,-0.0122,-0.0121,-0.01,-0.0099,-0.0099,-0.0099,-0.0037,-0.0035,-0.0033,-0.0027,0,0,-0.0026,-0.0025,0,0,0,0,0,0,0,0,-0.0137,-0.0137,-0.0135,-0.0134,-0.0132,-0.0114,-0.0098,-0.0088,-0.01,-0.0112,-0.0099,-0.0099,-0.0059,-0.0055,-0.0051,-0.0024,-0.0022,-0.0026,-0.0025,-0.0024,-0.0023,0,0,0,0,0,0,0,-0.0138,-0.0137,-0.0137,-0.0135,-0.0133,-0.0117,-0.0116,-0.0096,-0.0087,-0.0111,-0.0109,-0.0106,-0.0057,-0.0054,-0.005,-0.0021,-0.0026,-0.0024,-0.0023,-0.0022,0.0015,0.0015,0,0,0,0,0,0,-0.0143,-0.0138,-0.0138,-0.0137,-0.0133,-0.0118,-0.0116,-0.012,-0.0088,-0.0083,-0.0107,-0.0105,-0.0058,-0.0052,-0.0047,-0.0038,-0.0024,-0.0022,-0.002,0.0015,0.0015,0.0015,0,0,0,0,0,0,-0.0143,-0.0143,-0.0139,-0.0136,-0.0135,-0.0118,-0.0123,-0.012,-0.0118,-0.0085,-0.008,-0.0109,-0.0057,-0.005,-0.0038,-0.0035,-0.0021,-0.0019,0.0016,0.0015,0.0015,-0.0019,0,0,0,0,0,0,-0.0143,-0.0144,-0.0149,-0.0137,-0.0135,-0.014,-0.0123,-0.0119,-0.0117,-0.0115,-0.0085,-0.0079,-0.0056,-0.0042,-0.0036,-0.0032,-0.0017,0.0016,0.0016,0.0015,-0.0018,-0.0021,-0.0024,0,0,0,0,0,-0.0143,-0.0161,-0.015,-0.0149,-0.0143,-0.0141,-0.0139,-0.0125,-0.0117,-0.0121,-0.0103,-0.008,-0.0041,-0.004,-0.0034,-0.0029,0.0016,0.0016,0.0015,-0.0017,-0.002,-0.0024,0,0,0,0,0,0,-0.0168,-0.016,-0.0147,-0.0162,-0.0151,-0.0137,-0.0143,-0.013,-0.0119,-0.012,-0.0086,-0.0079,-0.007,-0.0047,-0.0047,-0.0021,-0.0007,-0.0007,-0.0034,-0.0037,-0.004,-0.0037,-0.0015,0,0,0,0,0,-0.0174,-0.0183,-0.0167,-0.0179,-0.0176,-0.0158,-0.0156,-0.0147,-0.0135,-0.0131,-0.0107,-0.0084,-0.0068,-0.0051,-0.0038,-0.002,0.002,-0.0012,-0.0015,-0.0017,-0.0011,0.0046,0.005,0.0012,0.0012,0.0012,0,0,-0.0187,-0.0183,-0.0188,-0.0184,-0.0176,-0.0176,-0.0157,-0.0161,-0.0158,-0.0125,-0.0116,-0.0099,-0.007,-0.0056,-0.0048,-0.0033,0.0013,-0.0018,-0.0021,-0.0013,0.0046,0.005,0.0053,0.0012,0.0012,0.0012,0,0,-0.0221,-0.0214,-0.0231,-0.0222,-0.0214,-0.02,-0.0202,-0.0188,-0.0178,-0.017,-0.0147,-0.0124,-0.0101,-0.007,-0.0054,-0.0062,-0.0014,-0.0061,-0.006,-0.0005,-0.0001,0.0003,0.0055,0.0064,-0.0051,-0.0051,-0.0051,0,-0.0235,-0.0252,-0.0235,-0.0244,-0.0241,-0.0212,-0.0224,-0.0208,-0.019,-0.0177,-0.0174,-0.0127,-0.0104,-0.007,-0.0074,-0.0066,-0.003,-0.0049,-0.0007,-0.0002,0.0003,0.0055,0.0065,-0.0053,-0.0053,-0.0052,-0.0052,0,-0.0272,-0.0284,-0.0295,-0.0291,-0.0284,-0.0294,-0.0266,-0.0254,-0.0237,-0.0214,-0.0188,-0.0153,-0.0119,-0.0109,-0.0094,-0.005,-0.0034,-0.0026,0.0004,0.0004,0.0059,0.0071,-0.0055,-0.0055,-0.0054,-0.0054,0,0,-0.0312,-0.032,-0.0324,-0.0333,-0.0311,-0.0316,-0.0299,-0.0276,-0.0263,-0.0232,-0.0209,-0.0173,-0.0144,-0.0124,-0.0093,-0.004,0.002,-0.002,-0.0016,0.0034,0.0144,0.011,0.012,0.0036,0.0038,0.0039,0.0168,0,-0.0345,-0.0381,-0.0369,-0.0393,-0.0406,-0.0368,-0.0356,-0.0326,-0.0292,-0.0259,-0.0203,-0.018,-0.0151,-0.0139,-0.0079,-0.0013,0.0049,-0.0015,0.0133,0.0137,0.011,0.0131,0.0045,0.0176,0.0179,0.0181,0.0182,0,-0.038,-0.0402,-0.0438,-0.0446,-0.0447,-0.0454,-0.0424,-0.041,-0.0342,-0.0312,-0.0255,-0.0212,-0.0135,-0.0118,0.0027,-0.0016,0.0063,0.0123,0.0129,0.012,0.0125,0.0177,0.0204,0.0202,0.02,0.0199,0.0198,0,-0.0418,-0.0448,-0.0482,-0.0484,-0.0484,-0.0492,-0.0488,-0.0433,-0.0419,-0.0346,-0.0316,-0.0221,-0.0175,-0.0063,0.0055,0.0047,0.0216,0.0222,0.0276,0.0275,0.0282,0.0277,0.0338,0.0338,0.0337,0.0337,0.0337,0,-0.0451,-0.0482,-0.0511,-0.0532,-0.0576,-0.0548,-0.0569,-0.0535,-0.0481,-0.0458,-0.0355,-0.0305,-0.0159,-0.0049,0.0061,0.0199,0.0227,0.0285,0.0308,0.0263,0.0254,0.0291,0.0284,0.0342,0.0341,0.034,0.0339,0,-0.0483,-0.0498,-0.0552,-0.0582,-0.06,-0.0633,-0.0649,-0.0648,-0.0577,-0.0538,-0.0517,-0.0363,-0.0218,-0.0069,0.0117,0.0198,0.0333,0.0377,0.0318,0.0334,0.0359,0.0349,0.046,0.046,0.046,0.0459,0.0459,0,-0.05,-0.0529,-0.0607,-0.0656,-0.0683,-0.0729,-0.0756,-0.0713,-0.0696,-0.0571,-0.0546,-0.0396,-0.0288,-0.0029,0.0114,0.0326,0.0349,0.0425,0.0396,0.0362,0.0374,0.0363,0.0353,0.0459,0.0459,0.0459,0.0459,0,-0.0537,-0.057,-0.0619,-0.0723,-0.0784,-0.0839,-0.0865,-0.0855,-0.0776,-0.0714,-0.0551,-0.0396,-0.0229,-0.0035,0.0123,0.0273,0.0375,0.0425,0.0427,0.04,0.0363,0.0372,0.0362,0.0459,0.0459,0.0459,0.0459,0,-0.0568,-0.0619,-0.0693,-0.0779,-0.0862,-0.0914,-0.0927,-0.088,-0.0842,-0.0676,-0.0631,-0.0416,-0.0285,-0.0062,0.0084,0.0221,0.0258,0.0305,0.0313,0.0315,0.022,0.0148,0.0208,0,0,0,0,0,-0.0591,-0.0654,-0.0744,-0.0837,-0.0916,-0.0957,-0.0975,-0.0959,-0.088,-0.0771,-0.0688,-0.0522,-0.0258,-0.0132,0.0,0.0048,0.0247,0.0205,0.0295,0.0458,0.0459,0.0367,0,0,0,0,0,0,-0.0613,-0.07,-0.0747,-0.0858,-0.0924,-0.0998,-0.1011,-0.0964,-0.0881,-0.0774,-0.0631,-0.0502,-0.0256,-0.0339,-0.0,0.0045,0.0117,0.0342,0.0345,0.0458,0.0458,0.0459,0.0364,0,0,0,0,0]}]]